GFSFLT2_850_thetae_078.txt.gz
Theta_e
337 335 335 331 329 327 327 326 325 330 330 323 321 326 326 328 328 328 325 317 311 310 312 311 310 315 323 322 322 322 322 321
333 336 336 334 331 329 326 329 325 329 330 325 323 326 326 329 328 327 316 313 310 309 308 307 308 315 321 322 322 322 322 319
331 335 335 334 333 330 330 329 324 331 329 327 326 328 325 329 325 316 312 309 309 308 307 307 307 312 321 321 322 321 321 320
331 335 335 334 334 332 331 330 327 322 331 329 327 327 326 325 325 319 312 308 307 306 306 307 307 313 320 322 321 322 321 320
333 333 333 334 333 332 330 329 329 329 331 329 327 324 323 326 327 319 308 307 307 306 307 307 308 316 320 321 321 321 321 319
335 333 333 332 332 332 330 329 326 327 330 327 325 326 324 324 327 321 310 308 307 307 308 311 309 318 321 321 321 321 320 316
332 332 331 329 328 328 327 327 327 326 327 325 326 325 323 324 324 323 311 310 309 310 318 318 316 319 321 319 320 321 320 313
330 331 330 329 327 325 324 326 327 326 327 323 324 323 321 320 323 321 312 312 310 320 321 319 319 320 320 321 320 320 320 315
329 331 330 329 327 324 324 327 326 327 326 325 325 322 320 318 320 318 319 315 314 321 321 320 319 319 320 320 321 320 320 317
326 329 329 327 327 324 324 324 325 326 326 325 324 321 320 322 319 320 323 321 319 322 320 318 318 319 319 320 320 321 320 320
324 326 329 326 328 326 324 325 323 324 324 323 322 321 321 319 320 321 324 323 321 321 318 318 318 318 318 318 319 320 320 321
326 324 326 326 326 327 326 326 323 323 323 322 321 316 315 314 318 324 324 323 322 320 318 317 317 317 317 317 317 317 318 319
325 324 326 326 325 326 326 326 324 323 322 320 315 316 313 320 322 323 322 323 321 319 318 317 316 316 315 315 315 316 316 317
326 324 325 324 326 325 326 326 324 323 323 321 318 318 319 319 320 320 320 322 320 318 318 318 318 316 317 316 316 316 315 315
325 324 325 325 326 324 325 324 323 322 322 318 314 313 316 319 319 317 317 316 316 315 316 319 319 318 317 317 320 320 320 319
324 322 326 324 327 325 324 324 323 322 321 317 315 318 318 318 319 318 317 318 316 313 317 320 320 319 318 319 320 321 320 321
324 324 324 324 324 324 324 324 323 323 322 315 315 317 317 317 317 317 316 315 315 315 319 320 320 320 319 320 320 320 319 318
326 322 323 326 325 326 325 323 324 323 322 320 316 317 314 317 318 316 313 313 313 316 319 319 319 319 318 317 318 319 318 317
325 326 322 323 325 324 324 324 324 323 323 322 318 317 312 312 316 314 314 315 313 315 318 319 318 318 317 318 318 318 317 317
325 325 322 324 324 325 325 324 324 323 323 323 323 318 312 311 312 314 314 315 315 312 316 318 317 317 317 317 317 317 317 318

GFSFLT2_850_thetae_081.txt.gz
Theta_e
336 335 334 334 332 330 326 328 327 327 326 326 328 326 326 324 330 330 325 319 318 320 318 317 323 324 323 322 322 322 321 316
333 334 335 334 333 331 329 327 326 326 326 327 330 326 325 323 327 329 324 315 319 317 315 312 323 323 322 322 322 321 321 312
330 336 335 335 333 330 329 327 327 326 327 327 328 329 330 330 329 328 320 312 313 314 313 311 323 322 322 322 322 322 321 308
332 334 335 335 334 332 329 329 327 326 326 330 328 328 329 330 329 324 317 311 310 309 309 314 321 322 322 321 321 320 318 315
333 332 335 333 334 333 330 331 326 325 328 329 328 328 331 329 324 318 314 312 308 307 308 313 320 321 321 322 321 321 321 320
332 332 333 332 333 333 331 330 327 326 326 329 329 328 328 325 321 314 309 308 307 307 307 310 320 321 321 321 321 321 320 320
332 331 331 331 332 332 330 329 329 326 325 330 326 327 324 322 322 311 307 307 306 307 307 313 320 320 321 321 321 321 320 317
331 331 330 329 328 328 328 329 328 327 325 327 326 323 324 321 324 310 307 307 307 308 307 316 320 320 320 320 320 320 320 314
328 330 329 329 326 326 324 327 328 327 327 327 325 325 325 320 325 312 308 308 308 311 313 314 317 319 319 321 320 320 320 315
329 330 329 328 326 323 324 327 325 327 327 326 325 325 323 323 325 317 310 309 318 318 319 320 319 318 320 321 320 320 319 318
326 328 329 328 326 324 324 324 326 327 326 326 325 325 323 321 323 316 313 314 320 321 320 319 318 318 320 320 320 320 320 318
326 323 327 327 326 325 324 325 324 325 326 324 325 324 321 318 321 317 316 314 320 321 320 318 318 319 319 320 319 320 320 320
327 321 327 329 325 325 326 325 324 325 326 325 324 320 320 321 320 319 322 320 320 321 319 318 318 318 318 318 318 318 319 320
327 322 322 327 325 325 325 325 324 323 324 324 322 320 320 321 321 322 321 322 321 320 318 318 318 317 317 317 316 317 317 318
326 321 321 325 326 324 326 325 324 323 323 322 321 319 318 317 318 318 323 322 322 320 318 317 317 316 316 316 315 315 315 316
326 321 322 323 325 324 324 325 323 323 323 320 318 317 316 316 320 319 321 322 320 320 319 317 315 316 316 316 316 318 320 319
326 322 320 323 323 324 324 323 324 323 323 322 316 318 316 317 320 320 320 321 321 321 318 314 314 317 317 316 317 320 320 319
326 323 322 325 324 324 324 324 323 324 322 323 322 319 317 318 319 319 317 318 318 316 315 315 315 315 319 318 317 320 320 319
328 325 323 325 323 325 324 324 323 322 323 322 320 315 314 317 318 318 319 319 317 317 317 317 315 317 320 320 319 319 319 318
329 327 322 320 326 325 324 323 323 323 322 322 321 316 314 314 317 318 318 319 317 315 316 316 317 319 319 320 318 317 317 317

GFSFLT2_850_thetae_084.txt.gz
Theta_e
333 337 336 336 335 334 334 333 331 330 328 326 326 328 330 327 329 331 331 329 323 325 324 325 326 326 326 324 324 323 323 321
331 335 339 337 335 333 331 327 328 327 327 327 325 324 328 329 328 331 329 328 323 322 324 326 327 326 324 324 323 321 318 314
328 332 335 334 334 333 332 328 327 326 326 326 326 325 328 328 329 329 325 323 323 320 325 325 324 322 322 322 321 321 317 308
328 329 334 334 334 332 330 328 327 327 326 325 325 326 329 326 323 321 324 319 322 319 322 324 323 321 322 322 321 321 311 306
330 329 336 334 333 333 331 328 328 326 325 326 327 328 328 325 326 328 319 314 320 318 317 323 321 322 322 322 321 319 314 307
328 331 331 333 332 332 332 330 330 326 324 327 326 329 328 329 329 326 314 314 314 314 315 322 321 321 321 321 320 321 320 319
329 330 331 332 332 331 331 330 328 327 324 327 328 328 326 330 328 319 313 312 310 310 320 321 321 321 321 321 321 321 320 319
330 330 329 331 330 330 330 330 328 327 324 325 329 328 326 328 324 314 311 310 307 309 320 321 321 321 321 321 321 321 320 319
330 329 328 329 329 330 331 330 329 326 327 327 328 328 326 324 320 312 309 307 307 308 317 320 321 320 320 320 320 320 320 317
330 328 328 326 328 326 325 325 328 328 328 328 329 326 325 322 321 310 307 307 307 307 312 320 320 320 320 320 320 320 319 318
329 328 327 326 326 324 324 325 326 328 327 328 327 326 323 324 323 310 307 307 307 307 317 317 318 318 320 320 320 320 319 318
328 326 327 326 326 324 324 324 325 325 327 327 328 326 324 324 323 312 307 308 312 314 312 314 311 315 320 320 320 320 320 319
327 326 326 325 325 325 323 324 325 325 327 327 328 325 324 323 325 312 308 314 319 316 318 319 318 317 320 320 320 320 320 320
327 326 322 324 325 325 324 324 323 325 326 326 326 325 324 324 324 313 311 319 320 318 320 320 318 318 319 320 319 319 320 319
327 326 321 325 324 323 324 324 325 325 324 325 325 325 324 321 320 319 315 315 320 321 320 318 318 319 318 318 317 318 318 319
327 325 320 320 324 324 325 325 324 323 324 324 325 324 321 320 322 318 316 320 318 321 320 317 318 318 318 317 316 315 316 316
327 325 320 319 327 323 324 326 325 324 323 324 324 322 320 321 323 321 320 321 318 321 319 317 317 317 317 317 316 315 316 316
327 325 320 320 323 323 323 324 323 323 323 323 323 321 321 321 320 321 319 319 320 321 320 318 318 317 317 315 315 316 318 320
328 325 321 319 321 323 322 322 323 323 322 323 322 322 320 319 317 317 318 319 321 320 320 318 319 318 315 316 315 316 316 319
329 326 323 319 318 322 323 322 323 322 323 323 322 321 319 316 315 318 319 320 319 320 320 319 319 317 314 317 317 318 317 318

GFSFLT2_850_thetae_087.txt.gz
Theta_e
328 334 335 336 336 335 336 335 334 332 331 331 329 327 323 324 325 326 330 331 328 326 327 326 326 324 323 323 322 319 320 322
328 335 335 335 335 335 334 334 333 333 331 328 328 324 326 326 324 327 330 329 326 327 326 324 325 324 324 321 323 323 322 318
327 334 333 334 334 334 334 333 331 328 328 327 326 326 324 327 324 328 330 326 327 326 325 325 325 325 324 323 322 320 318 317
327 328 331 332 332 333 333 332 330 327 327 326 326 326 326 327 323 328 328 325 325 325 326 327 327 324 323 322 320 320 313 313
327 327 328 333 333 334 333 331 328 326 326 326 326 325 325 325 325 330 327 326 324 326 327 326 324 322 322 321 321 317 308 309
329 326 329 335 332 332 332 331 328 327 326 325 325 326 325 327 325 327 326 325 323 326 326 324 323 322 321 321 320 314 308 307
329 326 328 330 332 332 332 332 329 328 327 324 325 326 326 327 328 327 326 324 322 325 324 323 321 322 321 321 320 320 319 316
330 327 327 329 329 330 330 330 330 327 326 325 324 328 327 328 324 324 325 322 322 322 323 322 321 321 321 320 320 320 320 319
330 328 327 327 325 329 329 329 330 327 327 325 330 327 328 327 324 328 319 317 321 319 321 320 321 321 321 321 321 320 320 318
330 328 328 327 325 328 329 328 329 328 327 325 327 327 327 327 328 327 314 315 317 316 321 320 320 321 321 321 320 320 319 318
329 328 327 327 324 327 327 328 330 329 328 326 325 328 325 326 327 321 313 312 310 312 321 320 320 320 321 320 320 320 319 318
329 328 327 326 322 325 324 323 325 326 328 328 325 326 326 326 324 318 310 310 309 313 321 320 320 320 320 320 320 320 319 318
328 328 326 322 320 325 323 326 324 327 328 328 328 327 327 321 322 318 309 308 308 311 318 320 320 320 320 320 320 319 319 319
328 327 325 322 319 324 324 324 327 324 325 327 328 328 327 324 323 321 308 307 307 308 313 319 319 318 319 320 319 319 320 319
327 327 324 322 320 324 323 324 324 325 324 326 325 327 327 324 323 321 308 307 309 309 316 318 316 317 319 319 319 320 320 320
328 327 325 321 320 324 323 324 322 323 324 325 326 327 327 325 325 322 309 308 312 314 314 316 316 317 319 320 318 317 318 319
328 327 325 321 320 321 323 323 324 325 323 325 322 326 325 325 324 325 314 313 317 319 314 319 320 318 316 318 319 317 316 316
328 327 326 321 318 321 323 323 323 325 325 322 322 325 325 325 324 322 320 316 314 320 316 316 320 318 316 317 317 317 316 315
328 327 326 321 317 320 323 324 324 324 324 323 323 323 324 323 322 320 320 317 315 316 318 320 320 317 318 317 318 317 316 315
328 328 326 322 318 321 322 323 323 323 324 323 323 324 324 322 321 321 323 321 318 319 321 319 319 319 318 317 317 317 316 316

GFSFLT2_850_thetae_090.txt.gz
Theta_e
325 330 334 337 336 337 337 335 334 331 329 327 327 327 328 327 327 325 324 322 327 330 329 329 327 328 329 329 329 328 327 326
325 328 333 335 336 336 337 336 334 333 330 328 328 330 330 327 325 323 322 323 327 329 329 328 328 328 327 326 325 325 324 323
327 329 341 335 336 336 335 335 335 333 331 330 331 329 328 326 325 324 321 326 328 328 329 328 326 325 324 324 322 321 320 320
327 327 330 330 332 334 334 334 334 332 331 331 328 328 325 325 326 324 323 330 328 328 328 326 324 324 324 323 322 319 319 317
327 325 326 329 329 332 334 333 333 331 328 327 326 326 325 325 325 323 324 329 326 327 327 325 324 323 323 323 320 318 313 314
328 326 325 326 330 330 332 333 332 332 329 327 325 326 326 326 327 325 325 326 326 326 325 325 326 324 323 321 320 316 310 311
329 328 325 326 326 331 332 331 331 329 327 326 325 326 326 326 326 325 327 325 325 325 325 326 326 322 322 321 319 309 308 308
330 329 327 326 328 330 330 330 329 330 327 327 325 326 326 326 325 326 326 326 325 324 325 326 324 322 321 321 319 318 316 312
330 329 328 327 328 329 326 329 328 331 329 329 325 325 324 326 326 326 326 325 325 325 326 325 323 321 321 321 319 320 319 318
330 330 328 327 327 326 325 327 327 328 330 326 326 325 327 326 326 327 327 325 325 325 325 323 322 321 321 320 320 320 319 318
330 330 329 328 328 326 326 328 327 328 329 327 325 328 329 327 327 327 325 324 325 325 324 322 321 321 321 320 320 320 319 318
330 330 329 328 328 326 325 327 329 327 327 327 325 327 327 327 325 324 325 321 324 324 322 320 321 321 321 321 320 319 319 318
330 330 329 327 327 325 324 324 323 329 327 328 327 325 328 323 325 326 326 317 322 323 319 320 320 321 321 320 319 319 319 318
330 330 329 327 325 324 322 323 323 325 324 327 328 326 325 323 325 327 323 316 322 321 318 320 319 320 320 320 319 319 319 318
329 329 328 327 323 322 323 323 325 325 325 326 327 327 325 323 322 325 320 316 312 312 318 319 319 320 320 320 319 319 319 319
329 329 328 326 323 321 320 322 323 322 324 325 326 324 327 327 326 322 322 312 309 310 317 318 319 320 320 319 318 317 319 319
329 328 327 326 323 320 321 322 323 322 324 323 325 324 326 327 326 323 322 317 309 308 311 316 318 319 319 319 318 318 317 316
329 328 327 326 323 319 320 322 323 322 322 323 324 325 325 326 326 324 323 317 309 307 309 309 317 317 317 314 313 315 317 316
329 328 327 327 324 319 318 322 323 323 324 322 324 323 325 326 325 325 323 321 314 309 311 312 313 317 317 318 318 317 318 317
328 328 327 327 325 319 317 321 322 323 323 324 323 322 323 325 325 325 325 323 318 311 316 317 316 313 316 319 319 317 317 317

GFSFLT2_850_thetae_093.txt.gz
Theta_e
325 326 330 336 337 336 335 334 332 330 330 332 332 332 332 329 328 328 326 326 323 322 329 330 330 329 327 328 329 329 328 328
325 326 330 336 337 336 336 335 334 332 330 331 330 330 328 328 327 327 326 326 325 323 326 328 329 328 328 329 329 329 328 327
325 327 331 337 335 336 336 335 334 333 330 329 331 328 327 327 329 328 326 326 324 325 324 327 328 328 329 329 328 327 327 325
325 329 329 336 332 335 336 334 334 333 331 329 328 327 328 330 329 326 323 325 325 325 325 327 328 329 329 326 324 321 322 323
326 327 328 331 331 332 335 337 334 331 331 330 329 329 331 328 326 323 324 325 325 324 327 327 329 327 325 323 322 322 321 320
326 328 326 327 330 330 332 333 332 331 331 331 331 330 328 327 325 325 325 324 326 326 327 327 327 324 324 322 321 319 317 319
327 328 327 325 329 330 328 330 333 334 332 331 330 327 326 326 325 325 326 324 328 326 327 326 324 323 323 323 320 318 311 318
327 328 328 326 325 329 331 330 331 330 331 330 328 326 325 325 326 325 327 325 326 324 327 325 325 325 323 321 319 308 309 312
328 328 329 327 326 328 330 328 328 327 328 329 326 326 325 326 327 326 326 325 323 325 326 325 326 324 322 320 318 316 313 310
329 328 329 328 327 328 330 328 326 328 327 329 327 326 325 326 328 327 325 326 324 324 325 326 326 322 321 321 319 318 317 316
330 329 330 329 328 329 328 327 325 325 326 329 329 327 325 325 325 327 326 326 322 322 326 326 325 321 321 321 319 319 318 317
330 328 330 330 328 328 327 326 326 325 326 328 328 326 326 326 326 326 326 325 322 325 326 325 324 322 321 320 319 319 318 318
328 328 330 330 329 328 328 326 327 325 325 326 325 325 327 328 326 327 327 326 325 326 326 324 321 321 321 320 319 319 319 318
326 328 329 330 329 328 326 323 323 327 327 327 327 326 326 326 326 326 327 326 325 325 325 322 321 321 321 320 318 318 319 318
321 327 329 330 329 328 326 321 324 325 324 324 327 326 324 327 322 325 325 325 324 325 325 323 320 320 321 320 319 320 319 319
324 328 329 330 329 327 324 318 322 323 324 325 327 325 324 325 323 325 325 326 320 323 324 322 320 320 320 320 320 319 320 319
325 329 330 330 328 327 323 319 322 322 323 326 325 326 327 325 324 322 325 324 318 322 324 322 319 319 320 320 320 319 317 315
326 327 329 330 328 326 322 318 321 323 322 323 324 326 324 326 326 321 323 324 316 314 313 313 314 319 320 320 320 319 317 315
324 326 328 329 327 326 322 318 322 323 322 324 322 323 325 324 326 325 324 323 323 318 315 309 312 319 319 319 320 319 318 314
325 326 328 328 327 325 322 319 322 322 322 323 323 323 324 323 326 326 326 324 323 321 316 309 314 316 317 318 318 317 315 313

GFSFLT2_850_thetae_096.txt.gz
Theta_e
321 322 323 326 333 337 335 333 331 331 330 332 335 335 335 335 334 333 331 332 329 329 327 329 331 331 329 327 327 329 332 331
322 324 324 329 336 337 336 335 332 331 330 331 331 333 335 335 332 328 328 328 326 327 328 326 328 330 329 328 328 329 332 331
323 325 324 334 336 336 338 336 335 332 331 330 331 331 331 333 329 328 328 327 325 327 327 327 327 330 329 329 329 330 330 329
324 325 325 327 330 333 335 336 335 334 332 331 331 331 332 332 328 327 328 328 326 328 328 325 326 329 329 330 329 330 329 327
327 325 326 329 328 333 335 335 334 334 334 332 332 331 331 328 328 329 329 328 327 327 326 325 327 328 330 328 329 327 325 324
329 326 326 327 330 332 332 333 333 334 334 332 331 330 329 328 329 330 329 325 325 328 324 325 327 328 328 328 326 325 324 323
330 326 327 328 329 329 329 330 334 333 334 332 331 329 328 329 330 330 326 325 326 325 325 328 328 327 327 325 326 324 323 322
330 327 328 328 325 325 327 328 330 331 332 332 331 330 331 331 329 329 326 325 325 325 325 328 327 327 325 325 324 323 321 321
336 330 327 328 327 325 327 329 329 329 331 331 331 331 331 330 327 327 327 326 324 326 325 327 327 327 326 325 324 320 320 320
336 332 328 328 328 326 326 329 331 329 328 327 327 329 328 327 327 328 327 325 325 324 324 327 327 327 325 324 322 320 320 320
336 332 330 328 329 328 326 328 331 328 327 327 327 328 327 327 328 327 326 326 325 321 323 326 326 325 325 324 322 322 322 321
334 334 331 329 330 329 327 329 330 328 325 325 326 328 328 326 326 328 326 326 325 323 323 325 325 325 324 323 322 323 323 322
332 335 331 330 330 330 328 328 332 328 325 325 325 328 329 327 326 326 327 326 325 324 324 325 324 324 323 322 322 322 322 322
330 334 328 330 329 330 328 328 330 327 325 325 326 326 326 326 325 326 326 325 325 323 323 324 324 323 322 322 320 320 322 321
329 333 325 330 330 330 329 328 328 326 324 326 326 327 327 326 327 326 326 326 326 323 323 324 324 323 323 322 321 321 321 322
330 333 325 329 330 330 329 327 325 323 323 326 326 326 325 326 325 326 326 326 324 323 324 325 323 323 323 323 322 321 321 322
330 331 326 328 329 330 329 329 326 323 325 325 325 327 327 326 320 325 325 326 325 325 325 325 324 323 321 322 322 322 322 321
331 327 326 328 330 330 329 328 325 325 323 325 326 326 326 325 324 322 325 324 324 325 324 324 323 323 321 321 322 322 321 320
330 327 327 329 330 330 329 326 324 325 323 324 325 325 325 325 325 325 325 325 326 324 319 323 324 318 321 319 322 321 320 319
331 333 328 329 330 330 328 325 319 325 325 323 323 324 326 324 325 326 324 321 322 323 320 319 318 317 316 317 319 321 321 321

GFSFLT2_850_thetae_099.txt.gz
Theta_e
321 320 322 322 322 326 332 333 333 332 332 335 337 337 336 335 333 333 332 332 332 330 326 327 329 329 330 330 330 332 330 330
322 321 322 322 321 324 332 333 333 332 332 332 334 336 336 335 333 333 333 332 332 330 326 328 326 327 328 328 328 330 330 331
324 322 323 332 333 331 333 335 334 332 331 331 332 333 336 335 334 333 328 329 329 326 326 328 326 326 326 327 328 332 331 330
328 323 325 340 337 338 337 336 336 334 332 331 331 332 333 335 334 332 329 328 328 326 327 328 327 325 326 327 329 331 329 327
338 326 326 337 340 339 339 336 336 336 335 334 332 334 333 333 334 332 328 328 329 328 327 328 327 326 328 329 331 329 329 329
340 328 326 336 340 337 338 339 336 335 334 334 334 333 333 333 334 333 331 329 329 329 328 328 325 328 328 328 328 327 325 327
342 331 327 326 333 337 333 334 332 334 333 334 334 333 332 332 332 333 331 330 330 329 327 327 325 327 328 327 328 326 325 326
342 332 329 326 338 339 328 327 334 331 332 333 333 333 332 331 331 331 330 330 329 327 327 325 325 327 327 327 326 325 324 324
340 333 329 327 333 337 331 327 332 335 332 332 333 333 332 331 330 330 331 329 328 326 326 324 326 327 326 327 325 324 323 322
338 340 329 328 327 333 334 333 327 333 334 332 331 331 331 331 330 331 330 329 328 326 325 326 327 326 326 325 324 322 322 322
335 341 335 330 328 329 329 332 325 326 332 330 328 329 329 329 329 330 329 328 327 325 325 325 327 326 326 324 323 321 321 320
332 339 340 333 329 329 329 328 326 326 330 330 328 327 327 327 329 328 328 328 326 325 324 325 326 325 325 323 322 322 321 321
331 337 339 336 331 330 329 329 328 327 326 329 329 328 326 326 328 327 330 327 326 325 325 326 325 325 324 323 323 322 322 321
327 334 338 336 332 331 330 330 329 329 326 329 329 327 326 326 328 327 327 327 326 325 322 321 323 324 323 323 322 322 322 321
324 329 335 337 332 332 334 333 332 330 327 329 327 326 327 327 326 327 325 326 326 326 321 323 325 324 323 322 322 322 321 321
326 328 333 336 333 335 335 332 331 329 329 328 326 326 326 327 326 326 326 325 326 326 325 324 324 324 323 322 321 321 322 323
327 329 332 335 334 335 335 334 332 330 328 327 325 328 326 326 322 326 326 325 326 325 325 324 323 324 323 323 322 322 322 322
327 331 334 334 332 335 334 334 332 329 327 328 328 326 327 326 323 324 325 325 326 325 322 322 323 324 323 322 322 324 323 322
327 332 335 331 333 334 335 334 332 328 327 328 326 326 327 328 323 324 324 324 325 324 323 323 324 324 323 322 323 320 320 321
328 333 333 331 332 333 334 334 330 328 326 327 326 325 326 326 325 322 325 322 323 324 324 324 324 324 323 323 320 315 316 322

GFSFLT2_850_thetae_102.txt.gz
Theta_e
324 322 321 322 321 320 326 332 333 332 332 334 337 337 337 336 335 334 333 334 332 327 327 327 326 329 329 328 331 332 332 333
324 323 321 322 321 320 324 331 332 332 331 332 336 337 337 336 335 333 333 332 332 331 328 326 326 326 328 327 328 329 328 329
324 324 322 322 322 322 325 330 332 332 332 332 333 335 336 336 335 333 332 332 331 331 328 326 326 326 326 327 327 328 329 331
328 324 323 323 325 323 329 329 331 333 332 331 332 333 334 335 334 333 333 329 330 329 326 326 327 327 325 326 326 329 330 330
332 328 324 327 329 327 331 334 330 333 333 332 331 332 333 334 334 333 332 329 328 328 327 327 328 326 325 325 327 327 330 328
336 329 326 328 340 329 332 335 336 338 336 335 334 332 333 333 334 334 333 330 328 328 328 328 327 327 324 325 327 328 329 328
335 332 327 329 338 333 334 335 337 341 337 335 334 334 334 333 333 332 332 331 330 329 329 329 327 328 325 326 327 326 328 327
334 332 332 329 334 333 330 326 330 333 332 331 333 333 333 333 332 332 332 332 330 330 330 329 327 326 325 326 327 326 327 325
335 333 332 328 333 332 331 328 325 329 328 332 331 333 333 332 332 331 331 330 330 330 329 327 327 325 324 326 326 326 325 325
336 334 331 329 330 338 331 329 328 332 328 330 331 332 332 331 331 330 330 330 330 330 327 327 327 325 326 326 326 325 323 323
333 334 329 330 330 338 337 329 329 329 332 331 332 331 329 331 331 331 330 329 331 329 327 326 324 326 326 326 324 323 321 322
334 334 331 334 330 335 337 336 332 330 334 332 330 329 328 328 329 330 330 328 330 329 327 325 325 326 326 325 324 321 321 322
331 336 334 331 335 329 336 332 331 328 326 331 333 328 326 325 327 326 328 328 330 329 326 325 326 326 326 324 322 321 320 321
325 336 337 334 336 332 335 335 330 329 328 329 328 328 328 327 326 327 327 328 328 328 326 325 326 326 326 323 322 322 320 320
322 326 338 336 335 337 335 336 333 334 331 330 330 329 328 327 327 327 326 327 327 328 326 325 325 325 324 322 323 322 322 321
324 322 328 337 335 337 335 333 332 331 331 331 329 328 328 327 328 327 327 326 326 327 326 325 325 325 324 323 321 321 321 322
323 324 324 333 335 336 335 334 335 332 331 330 329 327 326 326 326 326 326 326 326 325 326 324 325 324 324 323 321 321 320 319
326 324 325 329 333 337 335 334 334 333 331 330 329 326 325 327 326 326 324 326 326 326 326 324 323 322 324 322 321 322 322 322
328 326 328 330 333 336 335 336 334 333 331 328 326 322 325 326 326 325 324 325 325 325 326 325 322 321 324 323 321 320 323 323
328 328 330 332 334 335 335 337 334 333 330 327 326 324 326 326 327 324 324 324 325 324 325 325 324 324 323 323 322 322 322 322

GFSFLT2_850_thetae_105.txt.gz
Theta_e
323 322 321 321 321 318 320 325 330 332 331 331 334 335 336 336 336 335 334 333 331 330 327 327 326 326 330 331 331 332 332 331
324 322 322 321 321 318 319 323 328 331 331 332 334 337 337 337 336 335 334 333 332 328 328 327 326 327 329 330 329 329 331 332
325 323 322 322 322 319 318 321 326 329 331 331 334 337 337 336 335 335 333 333 332 331 329 326 326 326 328 328 329 328 329 329
326 325 323 323 322 321 319 321 325 328 331 331 332 335 335 336 335 334 332 332 331 331 328 326 326 326 325 325 327 327 328 329
327 325 324 323 323 323 320 322 324 328 331 331 331 332 334 335 335 333 332 332 330 331 327 327 327 326 326 325 326 327 328 329
332 332 326 324 324 324 323 323 324 327 330 331 331 331 332 334 334 333 333 332 329 328 328 328 328 327 327 325 325 327 328 329
331 333 329 325 326 327 325 324 325 326 331 332 333 332 331 332 333 334 333 332 330 329 328 328 328 327 325 324 326 327 327 328
334 330 330 326 326 329 327 324 327 330 324 333 333 334 332 333 333 333 332 332 331 329 329 328 328 327 327 324 324 327 326 328
336 333 334 331 326 330 331 326 326 324 325 328 332 333 333 333 333 333 331 331 331 331 330 329 329 327 327 324 325 327 327 327
335 334 333 334 329 326 331 329 329 324 324 323 325 329 332 332 332 332 332 331 329 329 329 328 328 326 326 325 324 326 326 326
330 334 334 333 333 327 327 331 332 326 327 326 324 329 331 332 332 331 330 329 329 329 329 328 327 326 326 324 325 325 324 324
326 332 333 334 334 329 327 337 337 329 328 327 326 327 330 331 332 331 330 330 329 329 329 329 326 327 326 324 326 324 323 323
325 331 333 336 334 331 328 329 337 334 331 331 330 328 326 327 327 330 330 331 331 329 328 329 326 325 326 326 326 324 322 321
323 325 333 334 333 333 331 329 335 336 333 333 332 328 328 326 324 325 328 327 329 329 327 329 326 324 326 326 324 322 321 321
333 330 335 333 333 333 334 333 334 336 335 333 331 329 329 328 326 326 326 326 327 327 327 329 326 324 326 325 322 322 321 322
326 336 336 335 334 334 331 331 330 329 331 332 329 330 329 328 328 327 327 326 326 326 329 328 326 325 326 323 322 321 320 321
326 327 332 332 333 334 331 329 331 328 333 331 331 331 331 329 328 327 327 326 325 325 327 327 327 325 326 323 322 322 320 320
325 326 326 329 330 329 333 332 332 333 332 331 332 331 330 329 328 327 327 326 326 326 326 327 326 325 326 323 322 321 321 320
324 325 326 327 334 328 330 332 335 334 332 333 331 330 329 328 325 326 326 326 325 325 326 325 326 325 325 323 322 321 320 320
319 322 325 327 336 333 331 335 336 334 334 333 331 330 329 327 323 325 325 324 324 325 326 326 324 325 325 323 322 322 321 322

GFSFLT2_850_thetae_108.txt.gz
Theta_e
322 321 320 320 320 317 318 320 327 332 333 334 333 335 335 335 336 335 334 333 331 328 328 326 327 327 331 332 332 331 332 332
322 321 320 321 321 318 318 320 325 330 330 331 332 334 335 335 336 335 335 333 330 330 328 327 327 326 331 331 331 330 331 331
324 322 321 321 321 319 318 320 324 329 330 330 332 335 336 336 336 335 334 333 332 330 328 328 326 327 330 330 328 328 329 330
326 322 321 322 322 320 318 319 322 327 330 330 331 335 336 336 336 335 334 333 332 330 328 326 326 326 329 329 328 328 327 329
328 326 322 322 322 321 319 319 322 325 330 330 331 334 336 335 336 334 333 332 332 330 328 326 326 326 328 327 327 327 325 327
330 328 325 323 324 323 321 320 321 323 327 330 330 332 333 334 335 335 333 333 332 330 328 327 326 325 327 327 327 327 326 327
332 328 325 324 324 325 324 322 321 322 324 329 330 330 331 332 333 334 333 333 332 330 328 328 327 327 326 326 327 326 326 326
337 336 327 324 323 325 327 324 323 322 322 327 330 330 330 331 332 333 332 332 332 331 329 328 327 328 327 327 326 326 326 326
339 337 333 327 324 326 328 326 326 324 322 325 330 331 332 331 331 332 331 332 331 331 331 329 328 328 327 325 325 326 326 326
335 338 337 335 330 325 327 327 327 325 325 322 325 329 332 332 332 332 332 331 331 331 330 330 329 329 328 327 326 324 325 326
322 332 338 337 334 330 327 328 329 327 327 325 324 327 330 332 332 332 332 332 330 331 330 329 329 328 327 327 326 325 326 326
319 319 330 339 336 333 332 334 331 330 330 326 326 325 328 330 331 331 331 331 331 329 328 328 328 328 327 326 325 325 326 325
317 318 322 339 338 336 334 333 332 331 332 329 329 325 326 329 330 332 332 330 330 330 329 328 329 328 327 325 326 325 325 326
320 318 319 328 337 336 335 331 331 331 331 330 330 330 328 328 329 330 332 332 331 330 330 329 329 328 327 326 326 326 325 325
323 325 323 329 336 337 335 332 336 336 333 332 330 332 332 330 327 327 328 330 331 329 329 330 329 328 327 326 325 324 324 324
337 338 336 338 339 338 335 331 331 331 329 329 331 332 332 331 330 327 326 325 326 327 328 329 329 327 327 325 326 324 322 322
328 337 342 340 337 337 336 333 333 332 331 331 330 332 332 331 332 330 327 326 326 326 328 327 328 326 327 325 325 322 322 321
322 325 330 331 338 338 335 334 334 333 331 331 329 329 330 329 331 329 328 328 326 326 329 328 325 325 327 325 325 322 321 320
317 318 322 325 327 333 336 336 334 332 330 330 330 330 329 330 329 330 329 330 327 326 326 325 326 326 327 325 325 322 321 320
318 318 319 319 323 327 330 334 335 335 332 333 333 331 330 331 332 332 329 328 325 326 324 325 325 326 326 325 324 322 321 320

GFSFLT2_850_thetae_111.txt.gz
Theta_e
321 320 320 320 319 317 319 322 326 332 335 336 336 335 335 336 335 334 333 332 329 329 327 326 327 328 328 330 332 331 332 332
321 320 319 320 319 318 318 322 325 331 333 334 335 334 334 334 335 335 333 331 332 327 326 326 326 326 329 331 331 331 332 331
321 320 320 320 320 318 319 321 324 329 331 332 332 332 333 334 335 335 335 334 331 330 329 327 327 326 328 330 331 331 332 331
322 321 320 320 321 320 318 320 322 326 329 330 330 331 332 334 335 335 335 334 331 330 328 328 327 326 329 330 329 328 330 330
324 322 321 321 321 321 319 320 321 325 328 329 330 332 334 335 336 336 335 333 332 330 328 327 326 326 328 329 329 328 327 327
324 324 322 321 322 321 320 319 320 323 326 328 329 331 334 335 336 335 334 333 332 331 328 327 326 325 326 329 329 328 327 326
325 325 324 323 322 322 321 320 320 321 324 326 329 330 331 334 334 335 334 333 332 332 329 327 326 325 325 328 328 327 328 326
333 332 330 326 323 322 323 321 321 322 323 325 326 329 329 330 331 333 334 333 332 332 330 328 327 326 325 326 328 327 327 327
333 333 334 332 325 323 324 324 323 322 322 324 325 327 329 329 330 331 333 333 332 332 331 329 327 327 327 326 326 326 327 326
334 337 337 337 330 326 324 326 326 323 323 324 325 326 328 329 329 330 331 331 331 330 331 330 328 328 327 327 327 326 326 326
337 338 335 337 337 330 326 326 330 326 325 324 323 326 329 330 330 330 331 331 331 330 330 331 330 329 328 328 327 325 325 325
335 329 328 333 338 337 332 331 334 331 328 326 323 322 326 329 331 331 331 332 332 331 330 330 330 329 329 328 328 326 327 324
325 327 326 331 337 339 336 332 332 332 331 328 327 325 323 326 329 331 332 332 331 332 330 330 328 327 327 328 328 326 327 325
319 322 319 320 327 329 335 335 333 334 334 332 332 327 325 323 325 329 331 331 331 331 330 330 328 328 327 327 326 326 325 325
317 317 319 324 330 340 339 337 335 335 335 333 333 330 328 326 324 327 330 331 332 331 330 329 329 328 327 327 326 326 325 324
328 331 330 331 336 338 339 338 336 334 333 332 333 333 330 329 328 327 329 333 332 329 328 328 328 326 327 328 327 326 325 323
334 336 335 337 339 340 338 339 337 335 334 333 332 333 332 331 331 330 330 328 328 328 330 327 326 326 326 326 327 326 325 324
323 330 334 334 337 338 338 337 335 336 333 332 332 331 331 329 333 331 331 329 328 327 326 329 325 325 326 325 327 326 325 323
318 319 323 326 332 335 338 337 335 336 333 332 333 331 331 330 328 331 329 329 328 327 326 327 326 326 326 326 327 326 325 324
317 318 318 318 320 324 332 334 336 336 335 334 334 332 330 329 329 328 329 329 328 328 326 325 325 326 327 326 326 325 326 323

GFSFLT2_850_thetae_114.txt.gz
Theta_e
320 319 319 319 318 317 319 321 324 330 334 336 336 336 336 335 334 332 332 332 331 329 326 326 326 327 329 331 332 332 332 331
320 319 319 319 319 317 319 321 324 329 334 336 335 335 335 335 335 333 333 332 330 328 327 326 325 326 329 330 332 331 331 331
320 319 319 319 319 318 318 321 324 329 334 336 335 334 333 334 335 334 334 331 329 328 327 326 326 327 329 330 331 331 331 331
321 320 319 320 319 319 318 320 323 327 331 334 334 332 331 332 334 335 333 331 332 329 327 327 326 326 328 331 331 330 331 331
321 320 319 320 320 319 319 319 320 325 329 331 331 330 330 331 334 334 334 334 334 329 329 328 327 326 326 330 329 328 329 328
321 321 320 320 320 320 319 318 319 321 326 328 329 329 330 331 334 335 335 334 332 330 330 327 327 326 326 329 329 328 328 327
323 322 321 320 321 321 320 319 319 320 322 325 327 329 329 331 333 335 335 334 332 332 330 328 327 326 326 327 329 329 328 327
327 325 323 321 321 321 321 319 319 320 321 322 325 327 328 330 332 334 335 334 333 332 331 328 326 326 325 326 328 328 328 327
331 327 326 324 323 321 322 321 320 320 320 321 323 325 328 330 330 331 332 333 333 332 331 330 327 326 326 326 325 327 328 327
333 330 330 331 330 326 323 323 322 321 321 322 322 324 327 329 330 329 330 331 333 332 331 331 329 327 327 327 326 326 326 326
335 333 334 332 335 332 325 324 324 324 323 322 322 322 325 328 328 329 329 330 332 332 331 331 330 329 328 328 327 327 327 326
335 334 336 334 337 335 330 326 325 325 325 324 323 323 325 326 328 328 329 330 331 331 331 330 329 330 330 329 327 327 327 326
336 336 337 337 339 339 336 330 328 327 327 326 325 324 324 326 327 328 329 330 330 331 331 330 330 330 330 328 327 326 326 326
337 338 338 338 339 339 339 337 333 330 329 329 329 327 324 324 324 326 329 330 331 331 331 330 331 330 328 326 326 326 326 326
322 335 339 338 337 339 338 339 337 335 334 331 330 330 329 327 326 325 327 330 330 331 331 332 330 329 331 326 326 325 326 325
317 319 320 325 333 338 339 338 337 335 335 333 332 332 331 331 329 328 325 330 334 332 329 328 328 327 325 325 325 325 325 324
326 323 320 324 335 334 341 340 336 337 336 335 334 333 331 332 331 330 328 328 334 329 328 328 327 326 325 325 325 324 325 325
327 329 330 330 332 334 336 336 337 335 337 336 334 333 330 331 333 331 330 330 330 330 329 328 328 326 325 324 325 326 325 325
321 324 329 331 332 332 334 335 336 335 336 335 328 331 331 330 331 331 331 330 330 329 329 330 329 326 324 324 324 325 325 324
315 318 322 326 329 331 332 333 335 338 337 336 335 334 332 332 331 330 331 329 329 329 329 328 327 325 324 324 324 323 326 325

GFSFLT2_850_thetae_117.txt.gz
Theta_e
321 320 320 320 320 320 321 325 328 329 332 334 334 335 334 333 332 331 332 332 332 332 330 327 326 327 328 330 331 332 334 333
321 320 320 320 320 320 320 324 328 329 331 333 334 335 335 334 333 332 332 333 331 330 327 326 326 326 327 330 331 331 333 332
321 320 319 319 320 320 321 322 328 331 332 333 335 335 335 335 334 333 332 333 330 328 327 327 326 326 328 330 329 331 332 331
321 320 319 319 319 320 321 323 325 332 334 334 334 334 334 334 335 334 333 332 329 329 328 326 327 327 328 330 330 329 331 331
322 321 319 319 320 319 321 324 324 326 332 333 333 334 334 334 334 334 334 332 329 332 329 327 327 327 327 328 331 330 329 330
322 322 320 320 320 319 319 322 323 322 327 332 333 333 333 332 333 334 334 332 331 333 329 328 328 327 326 327 330 330 329 329
323 322 321 320 320 320 319 319 322 323 322 328 331 331 330 330 332 334 334 334 334 334 329 329 328 327 326 327 330 329 328 328
323 323 321 320 320 320 320 319 319 321 322 321 327 329 329 329 331 333 334 335 335 333 331 330 328 327 326 326 328 330 329 329
329 323 322 321 320 320 321 320 319 320 321 320 322 326 328 329 330 333 334 335 334 332 332 331 328 327 326 325 326 327 328 329
324 327 323 322 321 321 321 321 320 320 321 321 320 323 326 328 329 331 333 334 334 333 332 332 329 328 326 326 326 326 325 327
317 332 327 326 324 322 321 322 322 321 321 322 320 321 324 327 328 330 331 332 334 333 333 332 331 330 328 326 326 327 327 326
316 320 335 331 329 325 324 323 323 323 322 321 322 320 321 326 328 329 330 330 331 333 333 332 331 331 330 329 328 328 327 327
324 327 334 335 333 329 330 328 325 325 324 323 323 322 321 322 326 328 329 330 330 331 332 332 331 330 329 329 328 329 327 326
333 334 335 336 334 334 335 335 331 327 327 326 326 324 323 322 322 327 328 329 330 330 331 331 331 330 329 328 327 326 326 326
335 337 338 337 336 336 336 336 335 332 329 328 328 326 325 324 323 324 327 329 329 330 330 331 330 329 328 328 325 324 325 324
326 338 339 338 336 336 335 333 334 334 334 331 330 330 328 327 325 324 324 326 328 329 330 331 330 328 328 327 326 325 325 324
319 324 338 336 336 336 336 336 335 334 336 335 334 333 331 330 328 328 327 326 326 326 329 330 331 330 327 327 326 325 325 324
322 327 331 334 335 338 338 335 335 335 335 336 335 335 334 332 330 329 330 330 328 327 327 329 329 327 327 327 326 325 325 325
319 322 325 327 328 331 332 333 334 335 336 335 337 336 335 334 331 330 330 330 330 330 329 330 329 329 328 328 326 325 324 323
316 320 322 325 327 329 330 332 333 334 334 334 336 336 334 335 334 332 330 331 331 331 329 329 329 328 328 328 328 325 323 323

GFSFLT2_850_thetae_120.txt.gz
Theta_e
331 330 329 328 325 325 328 330 331 334 335 334 333 333 332 331 331 331 332 333 333 333 333 331 328 327 329 330 331 331 336 336
330 330 328 327 324 325 325 326 327 333 335 335 334 334 332 332 332 331 332 332 333 332 331 328 327 328 329 330 329 329 334 335
331 331 325 324 323 323 325 324 326 331 335 335 335 335 334 333 333 332 332 332 333 331 328 327 327 327 328 328 328 330 332 334
333 330 326 322 321 322 325 325 327 331 335 336 336 339 338 338 335 333 332 333 332 329 327 327 327 332 330 330 330 330 331 331
330 327 326 324 323 323 322 322 335 334 335 339 338 338 338 338 337 334 333 333 331 329 328 330 333 337 337 334 330 329 329 331
337 327 325 323 329 323 323 321 323 332 335 338 340 338 338 338 339 337 336 334 336 334 336 336 335 334 335 335 332 331 331 330
335 331 324 322 323 330 322 320 321 323 327 334 338 337 335 339 340 340 337 337 336 336 336 334 332 333 334 335 335 332 332 330
333 335 325 323 322 324 321 320 321 322 325 327 334 332 334 338 339 339 338 337 336 336 336 334 333 333 333 333 334 334 331 330
327 336 331 324 322 322 321 320 321 322 322 325 330 330 332 334 335 337 337 336 334 335 335 334 334 333 333 333 333 333 332 330
316 333 336 328 323 322 321 321 321 322 323 324 326 328 329 332 331 331 334 334 334 335 334 335 334 333 332 332 332 332 333 331
314 324 337 334 325 322 322 321 321 331 336 323 323 325 327 328 330 331 332 333 334 335 334 334 335 334 333 332 332 331 332 332
313 317 336 336 333 324 325 329 323 332 335 331 322 323 325 327 328 329 331 333 334 335 334 332 334 334 333 332 331 330 331 329
315 316 327 337 337 334 332 333 329 332 335 334 324 323 324 325 326 327 329 331 331 333 334 334 333 334 333 330 330 329 329 328
317 319 324 336 336 336 333 331 330 332 333 333 327 322 324 325 324 325 327 329 330 330 332 334 333 333 331 331 331 329 328 327
316 324 325 334 335 337 336 335 334 334 333 333 324 323 324 325 325 325 326 328 328 329 329 333 333 332 332 331 330 328 327 328
313 323 333 335 336 337 336 335 333 334 334 331 325 325 326 326 326 325 324 325 327 327 329 330 332 332 331 330 329 328 327 327
313 320 334 338 336 337 336 339 338 338 336 335 331 328 328 328 327 327 325 324 325 326 327 329 330 331 331 329 328 329 328 328
314 316 332 337 338 338 337 337 337 337 334 334 333 334 332 331 330 328 327 326 326 326 326 328 330 330 331 329 330 328 328 328
312 313 323 330 334 334 337 335 328 337 336 337 335 332 334 334 333 332 329 328 329 329 329 329 329 328 329 328 329 329 328 326
312 312 320 323 327 329 333 335 337 336 335 338 336 335 336 334 335 335 333 332 332 332 332 331 331 331 328 329 329 328 328 328

GFSFLT2_850_thetae_123.txt.gz
Theta_e
349 341 339 338 337 335 332 331 332 334 334 334 335 336 335 336 335 334 333 333 334 334 333 333 332 330 329 328 330 332 335 336
348 347 340 338 338 335 334 332 332 334 334 334 335 335 334 334 333 333 333 333 333 333 333 333 329 328 328 329 327 329 331 336
348 348 346 343 342 336 334 334 334 334 334 334 334 334 333 333 333 334 332 333 333 333 333 330 328 328 328 329 330 333 334 334
346 347 346 345 343 342 335 332 333 334 334 334 335 339 340 340 338 334 333 333 333 333 331 328 328 331 328 327 328 336 333 333
341 344 344 338 343 342 341 340 339 338 338 339 338 340 340 342 338 335 333 333 333 332 329 328 329 336 336 335 335 336 335 333
329 342 342 339 336 340 337 339 339 339 340 340 339 340 340 339 340 340 336 335 337 333 333 335 335 336 335 335 336 336 335 332
317 333 340 337 335 340 337 339 334 339 340 339 338 340 339 340 340 339 338 338 338 336 336 335 335 335 335 335 334 334 334 334
314 318 337 340 337 339 339 339 338 333 338 342 338 338 339 339 339 339 338 338 336 336 336 335 336 335 334 334 334 333 334 334
312 315 326 338 339 338 339 339 338 323 323 340 338 338 340 340 338 338 337 338 336 335 335 335 335 334 334 334 333 332 333 333
310 312 316 335 337 337 338 338 336 324 321 325 341 339 338 337 338 339 336 336 336 336 336 336 334 334 333 333 333 333 332 332
310 310 313 321 337 336 337 337 337 332 327 323 333 341 337 334 339 337 339 336 337 336 337 337 334 334 333 333 333 332 332 331
309 310 312 315 333 336 336 337 337 336 335 337 325 330 337 335 334 332 331 334 332 335 337 335 336 333 334 333 332 332 331 331
309 309 312 315 326 336 335 337 335 332 334 336 335 323 329 333 333 332 330 334 330 332 334 335 337 334 334 332 332 332 331 332
314 314 316 317 318 334 335 336 335 331 333 335 338 326 321 331 328 328 328 334 330 332 333 334 336 335 334 332 332 330 330 328
313 314 314 317 320 334 335 337 334 334 333 335 336 336 325 326 327 326 327 329 329 333 331 332 333 333 334 332 331 330 329 332
307 309 313 316 321 332 334 336 335 334 334 334 336 337 331 324 325 326 327 327 327 329 329 330 330 333 334 333 332 330 329 328
305 309 312 312 311 331 336 335 336 335 334 335 336 337 336 325 325 326 326 326 326 328 329 329 328 330 332 333 331 333 331 330
302 306 310 316 319 332 335 334 337 336 336 337 337 337 334 336 327 325 325 325 326 327 329 329 328 328 332 331 331 331 330 330
300 302 309 320 322 332 334 335 336 337 338 338 338 337 333 337 336 333 329 327 327 328 328 328 328 329 329 333 331 331 330 331
297 300 305 318 317 325 331 335 335 335 331 327 337 338 336 334 335 336 337 334 331 333 331 331 332 331 332 331 331 330 330 330

GFSFLT2_850_thetae_126.txt.gz
Theta_e
349 349 344 340 338 337 337 335 335 334 333 333 333 335 338 338 338 336 334 334 334 334 333 334 335 333 330 328 329 330 331 338
348 348 342 340 338 337 337 336 335 334 333 333 334 335 337 335 337 334 333 333 333 333 333 333 333 330 328 328 329 330 330 334
339 346 347 341 339 338 336 336 335 334 334 334 334 336 336 336 336 334 332 333 333 333 333 333 331 327 327 328 327 328 329 333
324 338 346 345 341 340 337 335 334 332 333 334 334 336 335 333 334 333 333 332 333 333 333 332 328 327 327 327 326 331 334 331
317 332 338 344 345 344 342 337 335 332 330 332 334 335 337 336 337 336 334 333 332 332 332 330 327 335 334 330 328 335 333 332
314 316 339 339 343 343 344 342 336 331 328 330 333 335 338 339 339 337 335 333 332 332 332 329 328 336 335 334 334 334 335 333
310 312 319 337 339 339 343 343 342 338 332 331 334 335 337 340 337 338 337 336 334 334 332 329 334 335 335 334 333 333 333 333
310 310 312 325 336 336 337 341 341 341 340 337 333 335 338 340 337 338 338 337 336 336 335 336 334 335 335 333 334 334 333 332
310 309 311 311 331 338 335 342 340 339 342 341 336 336 338 337 337 338 338 336 336 336 335 335 334 334 334 333 333 333 332 332
310 310 309 310 315 332 334 337 341 341 338 342 335 336 338 338 339 337 338 336 336 335 335 334 334 334 334 334 333 332 331 331
312 310 310 309 310 321 334 335 338 340 339 333 336 337 337 335 337 338 335 335 335 334 335 335 335 334 333 334 334 333 331 330
312 311 310 310 310 313 323 333 334 339 339 333 335 335 335 336 337 340 336 337 335 335 335 335 335 334 334 332 333 333 332 330
312 313 311 313 309 314 323 327 333 336 339 335 332 329 328 337 335 340 338 338 337 335 335 335 336 335 333 332 332 331 330 331
307 312 314 315 315 316 320 325 330 333 339 335 336 330 325 329 338 334 333 336 335 335 334 336 336 334 333 333 333 330 331 330
301 307 311 314 314 315 316 319 329 332 337 334 338 336 334 327 328 335 330 327 332 335 335 337 335 334 334 333 331 329 329 330
299 300 307 309 311 312 314 316 320 332 336 335 337 338 335 333 327 333 331 330 330 335 336 338 338 334 334 333 330 332 331 332
296 298 302 308 308 307 309 310 317 330 334 336 337 337 336 334 329 334 335 330 326 328 337 339 337 334 333 333 332 331 331 332
295 298 301 305 307 309 310 307 307 322 333 335 336 339 338 335 332 332 335 333 326 325 330 334 338 335 332 331 329 332 332 331
295 297 299 303 307 309 315 313 314 311 331 335 336 339 338 335 335 336 338 335 329 328 330 329 333 337 334 332 331 332 331 332
295 296 299 302 306 308 316 319 316 325 333 333 337 338 339 337 336 334 339 336 337 335 335 336 335 335 333 333 332 330 331 331